Dewpoint
44 44 44 44 43 43 43 44 43 44 44 45 44 45 45 45 47 46 43 45 42 37 38 34 34 33 33 31 29 31 31 30 31 27 27 27 22 25 25 28 30 30 30 30 32 30 26 38 39 32 35 35 35 34
43 43 43 43 43 44 43 43 43 44 44 44 45 45 45 45 45 47 42 45 45 40 39 40 36 35 34 33 33 33 31 31 32 29 28 27 24 24 25 22 30 29 32 32 34 34 38 40 39 43 42 40 39 40
44 44 43 43 43 43 43 44 44 44 45 45 45 45 45 45 45 44 43 44 44 39 39 39 37 37 36 35 37 34 35 34 35 35 32 31 24 29 23 27 27 31 37 35 35 35 36 38 40 40 42 40 39 41
43 43 43 44 44 45 45 45 45 45 45 45 45 46 45 45 45 45 42 44 42 39 33 36 38 36 37 37 39 40 37 42 41 40 36 31 28 32 27 27 29 30 38 36 35 34 35 35 37 38 38 42 41 42
44 44 44 44 45 45 45 45 45 45 45 45 45 46 46 46 46 45 43 44 43 39 33 34 38 37 37 39 40 41 40 40 38 35 33 32 34 34 33 33 31 34 33 33 31 34 33 32 32 37 37 40 42 42
45 45 45 45 45 45 44 45 45 45 45 45 45 45 46 46 45 44 38 43 44 43 39 32 38 37 38 39 39 41 42 42 40 37 33 38 40 36 26 28 28 30 32 34 34 35 35 35 39 41 40 40 40 40
45 45 45 45 45 45 45 45 45 45 45 45 45 45 45 45 45 38 35 40 44 45 38 33 31 38 38 38 38 40 41 41 40 38 34 35 38 39 29 28 32 33 33 36 37 36 38 40 38 41 39 35 34 35
45 45 45 45 45 45 45 45 45 45 45 45 45 45 45 45 43 41 42 44 43 41 38 31 33 35 40 38 36 40 38 39 39 38 36 34 37 35 29 32 33 36 40 39 39 38 37 40 39 38 35 33 29 26
45 45 44 44 44 43 43 45 45 45 45 45 45 45 43 42 40 42 44 43 46 40 33 29 30 30 39 37 38 38 38 33 36 32 33 34 31 30 33 34 37 39 38 38 37 38 39 38 37 34 32 30 27 24
44 45 45 44 45 44 44 44 45 45 44 44 41 37 32 41 44 44 40 37 38 38 36 31 32 32 36 34 33 34 32 31 30 32 35 27 28 31 35 39 38 37 35 36 37 36 36 35 34 31 29 27 25 23
44 44 45 44 44 44 43 42 43 43 43 40 35 34 42 44 40 37 31 32 33 30 32 30 31 32 33 30 32 31 31 31 26 27 29 28 28 34 36 36 36 35 34 34 34 35 33 32 28 26 25 25 24 23
44 44 45 44 44 44 44 44 43 40 39 39 39 42 41 36 33 30 29 30 26 26 29 29 27 29 33 33 31 32 31 31 27 29 27 26 31 32 32 31 32 32 33 32 31 30 29 28 27 26 25 24 23 23
43 43 44 44 43 43 44 44 44 43 43 41 38 33 33 27 20 20 21 27 27 31 32 31 29 32 33 33 31 32 30 28 32 31 29 26 29 29 30 30 29 29 29 29 28 27 27 26 26 25 23 23 23 22
42 42 43 43 43 43 42 41 42 40 37 31 26 18 16 12 20 22 24 28 28 31 30 31 31 31 32 29 30 28 29 32 28 26 21 24 26 28 28 29 27 27 27 26 25 25 25 24 23 23 23 22 22 21
42 42 42 42 43 42 42 40 39 33 29 24 23 17 19 24 24 25 26 27 27 30 32 32 32 32 30 28 30 30 27 18 20 17 20 26 27 27 26 26 25 25 24 24 24 23 23 22 22 22 23 23 21 20
41 40 40 42 42 40 40 35 33 33 28 23 19 18 20 20 18 20 21 22 26 27 31 33 31 31 27 24 22 18 18 14 19 22 25 25 24 24 23 24 24 24 24 23 23 22 22 20 20 20 21 20 20 20
40 37 41 43 42 38 38 31 27 25 24 21 18 20 19 19 17 18 20 21 25 27 28 29 22 20 27 20 18 21 14 20 23 23 25 24 23 23 23 24 24 23 22 22 22 22 22 22 21 19 17 18 18 17
37 38 41 41 40 34 33 29 25 22 19 21 17 18 17 18 16 17 19 22 24 27 25 20 21 14 13 13 13 19 21 22 23 23 23 24 24 24 24 23 23 23 23 23 22 22 21 20 18 17 17 18 16 16
38 38 41 40 36 31 27 27 25 18 18 20 20 19 18 15 17 18 19 22 22 22 21 16 11 9 10 15 16 20 21 22 19 20 21 22 22 22 22 22 22 21 21 21 21 20 20 20 19 18 17 16 13 13
39 38 41 40 36 29 26 26 27 21 16 18 19 15 15 14 15 15 15 17 17 15 11 9 9 11 12 15 18 18 23 23 19 17 16 18 20 20 20 20 19 20 19 19 18 18 17 16 16 16 15 13 11 10
35 36 39 38 34 33 30 25 24 24 23 20 21 21 17 17 12 11 12 14 10 11 9 12 13 15 18 18 21 21 20 20 19 17 16 14 17 17 17 18 18 17 15 15 13 13 13 12 13 12 11 9 9 9
33 37 33 33 30 31 30 31 27 29 24 22 23 21 14 8 6 11 13 9 10 11 13 13 14 15 14 14 16 18 19 18 18 17 18 17 14 13 13 15 14 13 14 13 13 11 11 11 11 9 8 7 7 6
32 31 28 27 23 23 25 33 26 27 23 20 22 17 14 12 14 14 8 12 13 16 16 16 15 15 15 16 16 16 17 16 14 14 14 14 14 14 14 14 14 12 11 12 13 11 10 9 8 7 5 3 2 -1
25 19 16 16 20 14 20 18 23 20 19 19 19 16 15 15 13 10 6 9 12 13 12 13 14 13 13 12 10 11 14 15 13 13 14 13 11 11 12 12 12 12 11 10 9 8 8 6 5 3 0 -3 -4 -5
12 11 11 9 14 12 9 7 9 12 7 11 9 12 13 15 7 5 3 7 10 9 10 11 10 10 9 9 10 11 13 13 12 10 13 13 11 11 10 9 10 10 10 8 5 4 2 2 1 -0 -1 -4 -5 -10
5 7 6 5 8 7 9 1 2 2 4 3 5 10 3 -1 -5 -3 5 5 5 9 5 7 8 7 6 8 7 7 9 13 12 7 8 12 12 10 8 7 6 7 9 7 4 2 1 1 -0 -2 -6 -6 -7 -11
1 -1 11 10 13 10 0 1 4 -2 -6 -4 -2 -5 -8 -12 -11 2 8 8 9 9 12 12 10 8 7 7 8 9 9 9 8 7 8 7 7 7 7 5 4 5 7 5 3 1 -2 -4 -6 -7 -12 -19 -19 -16
6 6 -4 -3 -1 4 -10 -8 -8 -8 -4 7 -3 -12 -15 -13 -4 5 6 10 10 12 12 11 11 10 9 10 10 9 8 7 7 6 5 5 5 4 4 3 4 5 -3 -5 -5 -5 -7 -10 -13 -18 -17 -18 -22 -28
-0 1 0 -10 -7 -1 1 -9 -6 1 7 3 -13 -11 -1 7 5 5 10 12 12 11 8 7 7 7 7 6 5 5 4 4 -0 -3 -4 -6 -6 -2 -2 -2 -4 -6 -6 -3 2 -6 -10 -13 -15 -15 -19 -20 -23 -28
-1 3 -5 -12 -7 -2 -4 -2 -3 -7 4 2 7 6 5 4 10 12 11 10 7 3 4 5 2 0 -2 -2 -3 0 1 -4 -2 -3 -6 -8 -5 -5 -10 -11 -11 -16 -19 -14 -16 -11 -1 -13 -12 -20 -21 -23 -26 -25
5 -2 -6 -5 -3 0 -3 -11 -5 -2 -8 -8 -13 -10 -4 -0 4 7 7 5 7 6 4 -0 -0 -2 -4 -7 -8 -9 -7 -3 -5 -4 -3 -5 -9 -14 -16 -18 -22 -24 -22 -22 -21 -23 -24 -24 -25 -24 -23 -23 -26 -27
-8 -14 -7 -7 -2 0 0 -3 -13 -11 -16 -12 -11 -16 -11 -11 -12 -5 5 2 4 0 0 -2 -2 -3 -8 -9 -8 -9 -5 -10 -13 -11 -13 -16 -20 -21 -19 -20 -25 -23 -20 -22 -25 -25 -25 -23 -25 -24 -24 -25 -27 -28
-10 -12 -13 -9 -7 -6 -3 0 -2 -4 -5 -9 -5 -9 -9 -9 -11 -6 1 5 1 0 -1 -3 -6 -9 -10 -11 -15 -20 -20 -22 -19 -6 -12 -12 -15 -14 -23 -26 -26 -24 -19 -23 -24 -24 -23 -23 -26 -27 -29 -29 -29 -30
Lifted_Index
7 7 7 7 7 7 7 7 7 7 7 7 7 7 6 6 6 6 6 6 6 6 6 6 6 5 5 5 4 4 4 4 4 4 4 4 4 3 3 2 2 1 1 1 1 1 1 -0 -0 -0 1 1 1 1
6 6 6 6 6 6 6 6 6 6 6 6 6 6 6 6 6 6 6 6 6 6 6 6 6 5 5 4 4 4 4 4 4 4 4 4 3 3 3 3 2 2 1 1 1 1 1 1 0 0 0 0 0 0
5 5 5 5 5 5 5 5 5 5 5 5 5 6 6 6 6 6 7 6 6 6 6 6 6 6 5 4 4 4 4 3 3 3 3 3 3 3 3 3 2 2 1 1 1 1 1 1 1 1 1 1 0 0
4 4 4 4 4 4 4 4 4 4 4 4 4 4 5 5 5 6 6 6 6 6 6 6 6 5 5 4 4 4 3 3 3 3 3 3 3 3 2 2 2 2 2 1 1 0 0 1 1 1 1 1 1 1
4 4 3 3 3 3 3 3 3 3 3 3 3 3 3 3 4 4 5 6 6 5 5 5 5 5 4 4 4 4 3 3 3 3 3 3 3 2 2 2 2 2 2 2 1 0 0 0 1 1 1 1 1 1
3 3 2 2 3 3 3 3 3 3 2 2 2 2 2 2 3 3 4 5 5 4 4 4 4 4 4 3 3 3 3 2 2 3 3 3 3 3 3 3 3 3 3 2 2 1 0 0 0 0 1 1 1 1
3 2 2 2 3 3 3 2 2 1 1 1 1 1 2 2 2 3 3 4 4 3 2 2 2 2 2 3 3 3 2 2 2 2 3 3 3 3 3 4 3 3 4 3 2 2 1 0 -0 0 1 1 1 1
2 2 2 2 2 3 2 2 1 1 0 0 1 1 2 2 3 3 3 3 3 3 2 1 1 1 1 2 2 2 2 2 2 2 2 3 3 3 4 4 3 3 4 4 3 3 1 0 -0 0 0 0 1 1
2 2 2 2 2 2 2 2 1 1 1 1 1 1 2 2 2 2 3 3 2 2 1 1 1 1 1 1 1 1 1 1 1 2 2 2 3 4 4 4 3 3 3 3 3 3 2 1 0 0 0 0 0 1
2 2 1 1 2 2 2 2 2 2 2 2 2 2 2 2 2 2 2 2 2 1 1 1 1 1 1 1 1 1 1 1 2 2 2 3 3 4 4 3 3 2 2 2 2 2 1 1 0 0 1 1 1 1
2 2 1 1 1 1 2 2 2 2 2 2 2 2 1 1 1 1 1 1 1 1 1 1 1 0 0 1 1 1 1 1 2 2 2 3 3 4 4 3 3 2 2 2 1 1 1 1 1 1 1 1 1 1
3 2 2 2 2 2 2 2 2 1 2 2 2 1 1 1 1 1 1 1 1 1 1 1 1 1 1 1 1 1 1 1 2 2 2 3 3 3 4 4 3 3 2 2 1 0 0 1 1 1 1 1 2 2
3 3 3 2 2 2 2 1 1 1 1 1 1 1 1 1 1 1 1 1 2 2 2 2 1 1 1 1 1 1 1 1 1 1 2 2 3 3 4 4 4 3 3 2 1 1 1 1 1 1 1 2 3 3
3 3 3 3 3 2 2 2 2 1 1 1 1 1 1 2 2 2 2 2 2 2 2 2 2 2 2 2 2 1 1 1 1 2 2 2 3 4 4 4 4 4 3 3 2 2 2 1 1 2 3 5 5 5
3 3 3 3 3 3 3 3 2 2 2 2 2 2 2 2 3 2 2 2 2 2 2 2 2 2 2 2 2 1 1 1 2 2 3 4 4 5 5 5 4 4 4 4 3 3 3 3 3 4 6 8 9 9
4 4 4 4 4 4 4 4 3 3 3 3 3 3 3 3 3 3 2 2 2 2 2 2 2 2 2 2 2 2 2 2 3 4 6 7 7 7 6 6 6 6 6 6 6 6 6 6 6 7 9 11 12 12
4 4 4 4 4 5 5 4 4 4 4 4 4 4 4 3 3 3 2 2 2 2 2 2 2 2 2 2 2 3 3 5 6 8 9 10 9 9 9 9 9 9 9 9 9 9 10 10 10 10 11 13 14 14
5 5 5 4 5 5 5 5 5 5 5 5 5 5 5 4 4 4 3 3 3 3 2 2 2 1 2 2 3 5 7 9 10 11 12 12 12 12 12 12 12 12 12 11 11 12 12 12 12 12 13 14 14 15
5 5 5 5 4 4 5 6 6 5 5 6 7 7 6 5 5 5 4 4 3 3 3 2 2 3 4 6 7 9 11 12 12 12 13 14 14 14 13 13 13 13 13 13 13 13 13 13 13 14 14 14 15 15
6 6 6 5 5 5 5 7 8 7 6 8 9 8 7 7 7 6 5 5 4 3 4 4 6 7 9 11 12 12 13 13 12 12 13 14 14 14 14 14 13 13 13 13 13 14 14 14 15 15 16 16 16 17
7 7 7 7 6 6 7 7 8 8 8 8 9 8 8 8 7 6 6 6 6 6 7 9 11 12 13 14 14 14 14 14 14 13 13 14 15 15 14 14 14 13 13 13 13 14 14 14 16 17 18 18 19 19
8 8 8 8 8 7 8 8 8 8 8 8 8 8 7 7 8 9 9 9 10 12 14 15 15 15 15 15 15 15 15 15 15 15 15 15 15 15 15 14 14 14 13 14 14 14 15 16 18 19 19 20 21 21
9 8 8 8 7 8 8 9 9 8 8 7 7 7 7 8 10 11 10 12 15 18 19 18 18 17 17 17 17 17 17 16 16 16 16 16 16 15 15 15 15 15 15 15 16 16 17 18 19 20 20 21 21 21
8 7 7 7 7 7 8 8 8 8 8 7 6 6 7 9 11 10 10 13 17 19 19 19 19 18 17 17 17 17 18 17 17 17 17 17 16 16 16 16 16 17 17 18 18 18 19 19 20 20 20 20 20 20
6 6 6 7 7 7 7 7 7 7 7 7 6 7 8 9 9 8 9 13 17 18 18 18 18 18 17 17 17 17 18 18 17 17 17 17 16 16 16 16 16 18 19 19 19 19 19 19 20 20 20 20 19 19
5 6 7 8 8 7 7 7 7 7 7 7 7 8 9 8 8 8 11 14 16 17 18 18 18 17 17 17 17 17 18 18 17 17 17 17 17 16 16 15 16 18 19 20 19 18 18 18 18 18 19 19 19 19
6 7 8 9 9 8 8 8 8 8 8 8 8 8 8 8 8 11 14 16 17 18 18 18 18 17 16 17 17 18 18 19 18 17 17 18 18 18 17 17 17 18 19 20 19 18 18 18 18 18 18 18 18 19
8 8 8 8 8 8 8 8 8 8 9 9 9 8 8 9 11 13 16 17 18 18 17 17 17 17 16 16 17 18 18 18 17 17 17 17 17 17 18 18 18 18 19 19 19 19 18 18 18 18 18 18 18 19
8 9 8 7 7 7 8 8 8 9 10 10 9 9 9 11 14 15 16 17 17 16 15 15 15 15 15 15 16 16 17 17 16 15 14 14 15 16 17 18 18 18 18 18 18 18 18 18 18 18 18 18 18 18
9 9 8 7 7 7 9 10 10 11 11 10 10 9 10 12 15 16 16 16 15 14 14 14 14 14 13 13 14 15 15 16 15 14 14 14 14 15 16 17 17 18 18 17 17 17 17 17 17 17 17 17 17 17
9 8 7 7 7 9 10 11 11 10 10 9 9 9 9 11 13 15 15 15 14 13 13 13 13 13 13 13 13 14 14 15 15 15 15 15 15 16 16 17 17 17 17 17 16 16 16 16 16 16 16 16 16 16
9 8 7 7 7 9 10 9 9 9 8 8 8 9 9 9 10 12 14 14 14 13 13 13 13 13 13 14 14 14 14 15 15 16 16 16 16 16 16 17 17 17 16 16 16 16 15 15 15 15 15 15 16 16
9 8 8 7 7 8 8 8 7 7 7 7 8 8 9 8 9 11 13 14 14 13 13 13 13 13 14 15 15 15 15 15 16 16 16 16 16 17 17 17 17 16 16 16 16 15 15 15 15 15 15 15 16 16